Regional Weather Roundup
Issued by NWS

Home | Current Version | Previous Version | Text Only | Print | Product List | Glossary Off
Versions: 1 2 3 4 5 6 7 8 9 10 11 12 13 14 15 16 17 18 19 20 21 22 23 24 25 26 27 28 29 30 31 32 33 34 35 36 37 38 39 40 41 42 43 44 45 46 47 48 49 50

000
ASUS45 KBOI 271010
RWRID
WEATHER ROUNDUP FOR IDAHO
NATIONAL WEATHER SERVICE BOISE ID
400 AM MDT FRI MAR 27 2015

NOTE: "FAIR" INDICATES FEW OR NO CLOUDS BELOW 12000 FEET
WITH NO SIGNIFICANT WEATHER AND/OR OBSTRUCTIONS TO VISIBILITY

IDZ012-014-271100-
SOUTHWEST IDAHO


CITY           SKY/WX    TMP DP  RH WIND       PRES   REMARKS
BOISE          CLEAR     47  40  76 SE8       30.24F
CALDWELL       CLEAR     41  30  65 E6        30.25F
MOUNTAIN HOME  CLEAR     39  35  86 E8        30.24F WCI  34
$$

IDZ016-017-271100-
SOUTHCENTRAL IDAHO


CITY           SKY/WX    TMP DP  RH WIND       PRES   REMARKS
BURLEY         CLEAR     35  32  88 CALM      30.28F
JEROME         CLEAR     40  33  76 NE3       30.28F
TWIN FALLS     CLEAR     39  32  76 CALM      30.27F
$$

IDZ019>023-271100-
SOUTHEAST IDAHO


CITY           SKY/WX    TMP DP  RH WIND       PRES   REMARKS
IDAHO FALLS    CLEAR     38  31  76 SW8       30.32S WCI  32
POCATELLO      CLEAR     33  29  85 W7        30.31F WCI  27
REXBURG        CLEAR     34  30  85 NE5       30.32S WCI  30
$$

IDZ006-010-011-018-031-032-271100-
CENTRAL IDAHO MOUNTAINS


CITY           SKY/WX    TMP DP  RH WIND       PRES   REMARKS
MCCALL         CLEAR     32  30  92 CALM      30.27F
HAILEY         CLEAR     37  34  87 NW9       30.33F WCI  31
STANLEY          N/A     27  24  89 CALM      30.37F
SALMON         CLEAR     34  30  86 CALM      30.30S
CHALLIS        CLEAR     34  29  82 CALM      30.31F
$$

IDZ002-004-006-007-026-271100-
NORTHERN IDAHO


CITY           SKY/WX    TMP DP  RH WIND       PRES   REMARKS
LEWISTON       CLEAR     52  46  80 E9        30.15F
LOWELL           N/A     42  40  92 N5        30.26F
COEUR D`ALENE  CLEAR     41  39  93 E7        30.19S
MULLAN PASS    CLEAR     40  37  89 S7        30.23F
$$


USA.gov is the U.S. government's official web portal to all federal, state and local government web resources and services.